Time,TemperatureF,DewpointF,PressureIn,WindDirection,WindDirectionDegrees,WindSpeedMPH,WindSpeedGustMPH,Humidity,HourlyPrecipIn,Conditions,Clouds,dailyrainin,SoftwareType,DateUTC
2013-06-14 00:02:00,26.2,20.0,29.84,North,3,0.0,0.0,83,0.00,,,0.00,TxWx,2013-06-14 05:02:00,
2013-06-14 00:08:00,26.2,21.0,29.83,NNW,328,0.0,0.0,83,0.00,,,0.00,TxWx,2013-06-14 05:08:00,
2013-06-14 00:13:00,26.1,21.0,29.83,North,350,0.0,0.0,84,0.00,,,0.00,TxWx,2013-06-14 05:13:00,
2013-06-14 00:18:00,26.0,21.0,29.83,North,355,0.0,0.0,84,0.00,,,0.00,TxWx,2013-06-14 05:18:00,
2013-06-14 00:23:00,25.7,21.0,29.83,NNW,329,0.0,0.0,84,0.00,,,0.00,TxWx,2013-06-14 05:23:00,
2013-06-14 00:28:00,25.7,21.0,29.83,NNW,344,0.0,0.0,85,0.00,,,0.00,TxWx,2013-06-14 05:28:00,
2013-06-14 00:33:00,25.6,21.0,29.83,NNW,342,0.0,0.0,85,0.00,,,0.00,TxWx,2013-06-14 05:33:00,
2013-06-14 00:38:00,25.7,21.0,29.83,NNW,345,0.0,0.0,86,0.00,,,0.00,TxWx,2013-06-14 05:38:00,
2013-06-14 00:44:00,25.7,21.0,29.82,NNW,345,0.0,0.0,86,0.00,,,0.00,TxWx,2013-06-14 05:44:00,
2013-06-14 00:49:00,25.6,22.0,29.82,NNW,348,0.0,0.0,87,0.00,,,0.00,TxWx,2013-06-14 05:49:00,
2013-06-14 00:54:00,25.5,22.0,29.82,NNW,344,0.0,0.0,87,0.00,,,0.00,TxWx,2013-06-14 05:54:00,
2013-06-14 01:00:00,25.5,22.0,29.82,NNW,334,0.0,0.0,87,0.00,,,0.00,TxWx,2013-06-14 06:00:00,
2013-06-14 01:05:00,25.6,22.0,29.82,NNW,330,0.0,0.0,87,0.00,,,0.00,TxWx,2013-06-14 06:05:00,
2013-06-14 01:10:00,25.7,22.0,29.83,North,352,0.0,0.0,87,0.00,,,0.00,TxWx,2013-06-14 06:10:00,
2013-06-14 01:15:00,25.7,22.0,29.83,NNW,327,0.0,0.0,87,0.00,,,0.00,TxWx,2013-06-14 06:15:00,
2013-06-14 01:20:00,25.7,22.0,29.83,NNW,344,0.0,0.0,87,0.00,,,0.00,TxWx,2013-06-14 06:20:00,
2013-06-14 01:26:00,25.6,22.0,29.83,NNW,338,0.0,0.0,87,0.00,,,0.00,TxWx,2013-06-14 06:26:00,
2013-06-14 01:31:00,25.5,22.0,29.83,NNW,345,0.0,0.0,87,0.00,,,0.00,TxWx,2013-06-14 06:31:00,
2013-06-14 01:36:00,25.7,22.0,29.82,North,349,0.0,0.0,87,0.00,,,0.00,TxWx,2013-06-14 06:36:00,
2013-06-14 01:41:00,25.6,22.0,29.82,NNW,344,0.0,0.0,87,0.00,,,0.00,TxWx,2013-06-14 06:41:00,
2013-06-14 01:46:00,25.6,22.0,29.82,NNW,334,0.0,0.0,87,0.00,,,0.00,TxWx,2013-06-14 06:46:00,
2013-06-14 01:51:00,25.6,22.0,29.82,NNW,347,0.0,0.0,87,0.00,,,0.00,TxWx,2013-06-14 06:51:00,
2013-06-14 01:56:00,25.8,22.0,29.82,NNW,346,0.0,0.0,88,0.00,,,0.00,TxWx,2013-06-14 06:56:00,
2013-06-14 02:02:00,25.5,22.0,29.83,NNW,342,0.0,0.0,88,0.00,,,0.00,TxWx,2013-06-14 07:02:00,
2013-06-14 02:07:00,25.6,22.0,29.83,NNW,346,0.0,0.0,87,0.00,,,0.00,TxWx,2013-06-14 07:07:00,
2013-06-14 02:12:00,25.5,21.0,29.83,NNW,345,0.0,0.0,88,0.00,,,0.00,TxWx,2013-06-14 07:12:00,
2013-06-14 02:17:00,25.5,22.0,29.83,NW,325,0.0,0.0,88,0.00,,,0.00,TxWx,2013-06-14 07:17:00,
2013-06-14 02:22:00,25.4,21.0,29.83,NNW,343,0.0,0.0,88,0.00,,,0.00,TxWx,2013-06-14 07:22:00,
2013-06-14 02:27:00,25.5,22.0,29.83,NNW,333,0.0,0.0,88,0.00,,,0.00,TxWx,2013-06-14 07:27:00,
2013-06-14 02:32:00,25.4,21.0,29.83,NNW,342,0.0,0.0,88,0.00,,,0.00,TxWx,2013-06-14 07:32:00,
2013-06-14 02:37:00,25.4,21.0,29.83,NNW,335,0.0,0.0,88,0.00,,,0.00,TxWx,2013-06-14 07:37:00,
2013-06-14 02:43:00,25.4,21.0,29.83,North,350,0.0,0.0,88,0.00,,,0.00,TxWx,2013-06-14 07:43:00,
2013-06-14 02:48:00,25.5,21.0,29.83,NNW,335,0.0,0.0,88,0.00,,,0.00,TxWx,2013-06-14 07:48:00,
2013-06-14 02:53:00,25.5,21.0,29.83,NNW,345,0.0,0.0,88,0.00,,,0.00,TxWx,2013-06-14 07:53:00,
2013-06-14 02:58:00,25.4,21.0,29.83,NNW,333,0.0,0.0,88,0.00,,,0.00,TxWx,2013-06-14 07:58:00,
2013-06-14 03:03:00,25.5,21.0,29.83,North,352,0.0,0.0,88,0.00,,,0.00,TxWx,2013-06-14 08:03:00,
2013-06-14 03:08:00,25.4,21.0,29.83,NNW,345,0.0,0.0,88,0.00,,,0.00,TxWx,2013-06-14 08:08:00,
2013-06-14 03:13:00,25.5,21.0,29.83,NNW,339,0.0,0.0,88,0.00,,,0.00,TxWx,2013-06-14 08:13:00,
2013-06-14 03:18:00,25.5,22.0,29.83,NNW,335,0.0,0.0,88,0.00,,,0.00,TxWx,2013-06-14 08:18:00,
2013-06-14 03:24:00,25.4,21.0,29.83,NNW,331,0.0,0.0,88,0.00,,,0.00,TxWx,2013-06-14 08:24:00,
2013-06-14 03:29:00,25.3,21.0,29.83,North,353,0.0,0.0,88,0.00,,,0.00,TxWx,2013-06-14 08:29:00,
2013-06-14 03:34:00,25.4,21.0,29.83,NNW,343,0.0,0.0,88,0.00,,,0.00,TxWx,2013-06-14 08:34:00,
2013-06-14 03:39:00,25.2,21.0,29.83,NNW,344,0.0,0.0,88,0.00,,,0.00,TxWx,2013-06-14 08:39:00,
2013-06-14 03:44:00,25.1,21.0,29.83,NNW,348,0.0,0.0,88,0.00,,,0.00,TxWx,2013-06-14 08:44:00,
2013-06-14 03:49:00,25.2,21.0,29.83,NNW,339,0.0,0.0,89,0.00,,,0.00,TxWx,2013-06-14 08:49:00,
2013-06-14 03:55:00,25.2,21.0,29.83,NNW,336,0.0,0.0,89,0.00,,,0.00,TxWx,2013-06-14 08:55:00,
2013-06-14 04:00:00,25.2,21.0,29.83,NNW,344,0.0,0.0,89,0.00,,,0.00,TxWx,2013-06-14 09:00:00,
2013-06-14 04:05:00,25.2,21.0,29.83,NNW,342,0.0,0.0,88,0.00,,,0.00,TxWx,2013-06-14 09:05:00,
2013-06-14 04:10:00,25.3,21.0,29.83,NNW,348,0.0,0.0,89,0.00,,,0.00,TxWx,2013-06-14 09:10:00,
2013-06-14 04:15:00,25.2,21.0,29.83,NNW,343,0.0,0.0,89,0.00,,,0.00,TxWx,2013-06-14 09:15:00,
2013-06-14 04:20:00,25.3,21.0,29.83,NNW,338,0.0,0.0,89,0.00,,,0.00,TxWx,2013-06-14 09:20:00,
2013-06-14 04:25:00,25.2,21.0,29.83,NNW,342,0.0,0.0,89,0.00,,,0.00,TxWx,2013-06-14 09:25:00,
2013-06-14 04:30:00,25.2,21.0,29.84,North,349,0.0,0.0,89,0.00,,,0.00,TxWx,2013-06-14 09:30:00,
2013-06-14 04:36:00,25.3,21.0,29.84,North,352,0.0,0.0,89,0.00,,,0.00,TxWx,2013-06-14 09:36:00,
2013-06-14 04:41:00,25.1,21.0,29.85,NNW,346,0.0,0.0,89,0.00,,,0.00,TxWx,2013-06-14 09:41:00,
2013-06-14 04:46:00,25.2,21.0,29.85,NW,324,0.0,0.0,89,0.00,,,0.00,TxWx,2013-06-14 09:46:00,
2013-06-14 04:51:00,25.3,21.0,29.85,NNW,341,0.0,0.0,89,0.00,,,0.00,TxWx,2013-06-14 09:51:00,
2013-06-14 04:57:00,25.2,21.0,29.85,North,351,0.0,0.0,89,0.00,,,0.00,TxWx,2013-06-14 09:57:00,
2013-06-14 05:02:00,25.1,21.0,29.85,NNW,347,0.0,0.0,89,0.00,,,0.00,TxWx,2013-06-14 10:02:00,
2013-06-14 05:07:00,25.0,21.0,29.86,NNW,339,0.0,0.0,89,0.00,,,0.00,TxWx,2013-06-14 10:07:00,
2013-06-14 05:12:00,25.1,21.0,29.86,NNW,346,0.0,0.0,89,0.00,,,0.00,TxWx,2013-06-14 10:12:00,
2013-06-14 05:17:00,25.2,21.0,29.86,NNW,341,0.0,0.0,89,0.00,,,0.00,TxWx,2013-06-14 10:17:00,
2013-06-14 05:23:00,25.1,21.0,29.86,NNW,338,0.0,0.0,89,0.00,,,0.00,TxWx,2013-06-14 10:23:00,
2013-06-14 05:28:00,25.2,21.0,29.86,NNW,336,0.0,0.0,89,0.00,,,0.00,TxWx,2013-06-14 10:28:00,
2013-06-14 05:33:00,25.2,21.0,29.86,NNW,348,0.0,0.0,89,0.00,,,0.00,TxWx,2013-06-14 10:33:00,
2013-06-14 05:38:00,25.4,21.0,29.87,NNW,345,0.0,0.0,89,0.00,,,0.00,TxWx,2013-06-14 10:38:00,
2013-06-14 05:43:00,25.6,22.0,29.87,NNW,339,0.0,0.0,89,0.00,,,0.00,TxWx,2013-06-14 10:43:00,
2013-06-14 05:48:00,25.5,21.0,29.87,NNW,347,0.0,0.0,89,0.00,,,0.00,TxWx,2013-06-14 10:48:00,
2013-06-14 05:54:00,25.6,22.0,29.88,North,349,0.0,0.0,88,0.00,,,0.00,TxWx,2013-06-14 10:54:00,
2013-06-14 05:59:00,25.6,22.0,29.88,NNW,335,0.0,0.0,88,0.00,,,0.00,TxWx,2013-06-14 10:59:00,
2013-06-14 06:04:00,25.9,22.0,29.89,NNW,347,0.0,0.0,87,0.00,,,0.00,TxWx,2013-06-14 11:04:00,
2013-06-14 06:09:00,26.1,22.0,29.89,North,352,0.0,0.0,87,0.00,,,0.00,TxWx,2013-06-14 11:09:00,
2013-06-14 06:14:00,26.3,22.0,29.89,NNW,343,0.0,0.0,87,0.00,,,0.00,TxWx,2013-06-14 11:14:00,
2013-06-14 06:20:00,26.3,21.0,29.89,North,349,0.0,0.0,86,0.00,,,0.00,TxWx,2013-06-14 11:20:00,
2013-06-14 06:25:00,26.6,22.0,29.88,NNW,348,0.0,0.0,86,0.00,,,0.00,TxWx,2013-06-14 11:25:00,
2013-06-14 06:30:00,26.5,21.0,29.88,North,349,0.0,0.0,85,0.00,,,0.00,TxWx,2013-06-14 11:30:00,
2013-06-14 06:35:00,26.8,22.0,29.88,NNW,347,0.0,0.0,84,0.00,,,0.00,TxWx,2013-06-14 11:35:00,
2013-06-14 06:40:00,26.6,22.0,29.88,NNW,348,0.0,0.0,83,0.00,,,0.00,TxWx,2013-06-14 11:40:00,
2013-06-14 06:45:00,26.9,22.0,29.88,North,349,0.0,0.0,83,0.00,,,0.00,TxWx,2013-06-14 11:45:00,
2013-06-14 06:50:00,26.9,21.0,29.89,NNW,343,0.0,0.0,83,0.00,,,0.00,TxWx,2013-06-14 11:50:00,
2013-06-14 06:55:00,26.9,21.0,29.89,NNW,345,0.0,0.0,82,0.00,,,0.00,TxWx,2013-06-14 11:55:00,
2013-06-14 07:01:00,27.1,21.0,29.89,North,350,0.0,0.0,81,0.00,,,0.00,TxWx,2013-06-14 12:01:00,
2013-06-14 07:06:00,27.3,21.0,29.89,NNW,345,0.0,0.0,81,0.00,,,0.00,TxWx,2013-06-14 12:06:00,
2013-06-14 07:11:00,27.3,21.0,29.89,NNW,345,0.0,0.0,81,0.00,,,0.00,TxWx,2013-06-14 12:11:00,
2013-06-14 07:16:00,27.6,22.0,29.89,North,349,0.0,0.0,81,0.00,,,0.00,TxWx,2013-06-14 12:16:00,
2013-06-14 07:22:00,27.8,21.0,29.90,North,352,0.0,0.0,79,0.00,,,0.00,TxWx,2013-06-14 12:22:00,
2013-06-14 07:27:00,27.9,21.0,29.90,North,357,0.0,0.0,79,0.00,,,0.00,TxWx,2013-06-14 12:27:00,
2013-06-14 07:32:00,27.9,21.0,29.91,NW,326,0.0,0.0,79,0.00,,,0.00,TxWx,2013-06-14 12:32:00,
2013-06-14 07:37:00,28.3,21.0,29.92,NNW,336,0.0,0.0,78,0.00,,,0.00,TxWx,2013-06-14 12:37:00,
2013-06-14 07:42:00,28.1,21.0,29.92,NNW,341,0.0,0.0,78,0.00,,,0.00,TxWx,2013-06-14 12:42:00,
2013-06-14 07:47:00,28.3,21.0,29.92,NW,323,0.0,0.0,78,0.00,,,0.00,TxWx,2013-06-14 12:47:00,
2013-06-14 07:53:00,28.4,21.0,29.92,NNW,347,0.0,0.0,77,0.00,,,0.00,TxWx,2013-06-14 12:53:00,
2013-06-14 07:58:00,28.5,21.0,29.92,NNW,336,0.0,0.0,77,0.00,,,0.00,TxWx,2013-06-14 12:58:00,
2013-06-14 08:03:00,28.6,22.0,29.93,NNW,346,0.0,0.0,78,0.00,,,0.00,TxWx,2013-06-14 13:03:00,
2013-06-14 08:08:00,28.5,21.0,29.93,North,355,0.0,0.0,76,0.00,,,0.00,TxWx,2013-06-14 13:08:00,
2013-06-14 08:13:00,28.8,21.0,29.93,NNW,334,0.0,0.0,76,0.00,,,0.00,TxWx,2013-06-14 13:13:00,
2013-06-14 08:18:00,29.1,21.0,29.93,North,354,0.0,0.0,75,0.00,,,0.00,TxWx,2013-06-14 13:18:00,
2013-06-14 08:24:00,29.1,21.0,29.93,North,353,0.0,0.0,75,0.00,,,0.00,TxWx,2013-06-14 13:24:00,
2013-06-14 08:29:00,29.0,21.0,29.93,NNW,328,0.0,0.0,74,0.00,,,0.00,TxWx,2013-06-14 13:29:00,
2013-06-14 08:34:00,29.3,20.0,29.93,North,350,0.0,0.0,73,0.00,,,0.00,TxWx,2013-06-14 13:34:00,
2013-06-14 08:39:00,29.6,21.0,29.93,NNW,344,0.0,0.0,72,0.00,,,0.00,TxWx,2013-06-14 13:39:00,
2013-06-14 08:45:00,29.6,21.0,29.93,NNW,334,0.0,0.0,73,0.00,,,0.00,TxWx,2013-06-14 13:45:00,
2013-06-14 08:50:00,29.7,21.0,29.93,NNW,344,0.0,0.0,72,0.00,,,0.00,TxWx,2013-06-14 13:50:00,
2013-06-14 08:55:00,29.7,21.0,29.93,North,351,0.0,0.0,72,0.00,,,0.00,TxWx,2013-06-14 13:55:00,
2013-06-14 09:00:00,30.2,21.0,29.93,North,4,0.0,0.0,72,0.00,,,0.00,TxWx,2013-06-14 14:00:00,
2013-06-14 09:05:00,30.2,20.0,29.93,NNW,347,0.0,0.0,69,0.00,,,0.00,TxWx,2013-06-14 14:05:00,
2013-06-14 09:10:00,30.1,20.0,29.93,North,353,0.0,0.0,70,0.00,,,0.00,TxWx,2013-06-14 14:10:00,
2013-06-14 09:15:00,30.5,22.0,29.93,North,353,0.0,0.0,71,0.00,,,0.00,TxWx,2013-06-14 14:15:00,
2013-06-14 09:20:00,30.7,21.0,29.93,North,355,0.0,0.0,69,0.00,,,0.00,TxWx,2013-06-14 14:20:00,
2013-06-14 09:25:00,30.6,20.0,29.94,North,357,0.0,0.0,67,0.00,,,0.00,TxWx,2013-06-14 14:25:00,
2013-06-14 09:31:00,31.2,20.0,29.93,NNW,331,0.0,0.0,66,0.00,,,0.00,TxWx,2013-06-14 14:31:00,
2013-06-14 09:36:00,30.9,20.0,29.94,NNW,332,0.0,0.0,67,0.00,,,0.00,TxWx,2013-06-14 14:36:00,
2013-06-14 09:41:00,31.0,21.0,29.94,North,3,0.0,0.0,69,0.00,,,0.00,TxWx,2013-06-14 14:41:00,
2013-06-14 09:46:00,31.2,20.0,29.94,North,350,0.0,0.0,66,0.00,,,0.00,TxWx,2013-06-14 14:46:00,
2013-06-14 09:51:00,31.4,20.0,29.94,NNW,336,0.0,0.0,66,0.00,,,0.00,TxWx,2013-06-14 14:51:00,
2013-06-14 09:56:00,31.3,20.0,29.93,North,350,0.0,0.0,65,0.00,,,0.00,TxWx,2013-06-14 14:56:00,
2013-06-14 10:02:00,31.4,20.0,29.93,NNW,347,0.0,0.0,65,0.00,,,0.00,TxWx,2013-06-14 15:02:00,
2013-06-14 10:07:00,31.8,20.0,29.93,North,2,0.0,0.0,65,0.00,,,0.00,TxWx,2013-06-14 15:07:00,
2013-06-14 10:12:00,31.7,20.0,29.94,NNW,337,0.0,0.0,63,0.00,,,0.00,TxWx,2013-06-14 15:12:00,
2013-06-14 10:17:00,32.0,21.0,29.94,North,350,0.0,0.0,66,0.00,,,0.00,TxWx,2013-06-14 15:17:00,
2013-06-14 10:23:00,32.0,20.0,29.94,North,350,0.0,0.0,64,0.00,,,0.00,TxWx,2013-06-14 15:23:00,
2013-06-14 10:28:00,31.8,19.0,29.94,North,6,0.0,0.0,62,0.00,,,0.00,TxWx,2013-06-14 15:28:00,
2013-06-14 10:33:00,32.0,19.0,29.94,NNW,334,0.0,0.0,62,0.00,,,0.00,TxWx,2013-06-14 15:33:00,
2013-06-14 10:38:00,32.0,20.0,29.94,North,352,0.0,0.0,63,0.00,,,0.00,TxWx,2013-06-14 15:38:00,
2013-06-14 10:44:00,32.0,19.0,29.94,NW,323,0.0,0.0,62,0.00,,,0.00,TxWx,2013-06-14 15:44:00,
2013-06-14 10:49:00,31.9,19.0,29.94,North,2,0.0,0.0,62,0.00,,,0.00,TxWx,2013-06-14 15:49:00,
2013-06-14 10:54:00,32.4,19.0,29.93,North,349,0.0,0.0,62,0.00,,,0.00,TxWx,2013-06-14 15:54:00,
2013-06-14 10:59:00,32.5,19.0,29.93,NNW,344,0.0,0.0,62,0.00,,,0.00,TxWx,2013-06-14 15:59:00,
2013-06-14 11:04:00,32.5,20.0,29.93,North,356,0.0,0.0,61,0.00,,,0.00,TxWx,2013-06-14 16:04:00,
2013-06-14 11:09:00,32.7,19.0,29.93,North,352,0.0,0.0,58,0.00,,,0.00,TxWx,2013-06-14 16:09:00,
2013-06-14 11:14:00,33.0,19.0,29.93,North,350,0.0,0.0,58,0.00,,,0.00,TxWx,2013-06-14 16:14:00,
2013-06-14 11:20:00,32.8,19.0,29.92,NNW,347,0.0,0.0,58,0.00,,,0.00,TxWx,2013-06-14 16:20:00,
2013-06-14 11:25:00,32.9,19.0,29.92,NNW,341,0.0,0.0,59,0.00,,,0.00,TxWx,2013-06-14 16:25:00,
2013-06-14 11:30:00,33.1,19.0,29.92,North,359,0.0,0.0,58,0.00,,,0.00,TxWx,2013-06-14 16:30:00,
2013-06-14 11:35:00,32.9,18.0,29.92,North,6,0.0,0.0,57,0.00,,,0.00,TxWx,2013-06-14 16:35:00,
2013-06-14 11:40:00,32.9,18.0,29.92,North,2,0.0,0.0,57,0.00,,,0.00,TxWx,2013-06-14 16:40:00,
2013-06-14 11:45:00,33.2,17.0,29.92,North,349,0.0,0.0,55,0.00,,,0.00,TxWx,2013-06-14 16:45:00,
2013-06-14 11:50:00,33.4,18.0,29.92,NNW,341,0.0,0.0,56,0.00,,,0.00,TxWx,2013-06-14 16:50:00,
2013-06-14 11:56:00,33.6,19.0,29.91,North,358,0.0,0.0,56,0.00,,,0.00,TxWx,2013-06-14 16:56:00,
2013-06-14 12:01:00,33.5,19.0,29.91,North,358,0.0,0.0,56,0.00,,,0.00,TxWx,2013-06-14 17:01:00,
2013-06-14 12:06:00,33.5,19.0,29.91,North,351,0.0,0.0,55,0.00,,,0.00,TxWx,2013-06-14 17:06:00,
2013-06-14 12:11:00,33.6,19.0,29.91,NNW,345,0.0,0.0,56,0.00,,,0.00,TxWx,2013-06-14 17:11:00,
2013-06-14 12:16:00,33.7,19.0,29.91,NNW,339,0.0,0.0,56,0.00,,,0.00,TxWx,2013-06-14 17:16:00,
2013-06-14 12:21:00,33.8,19.0,29.91,North,354,0.0,0.0,57,0.00,,,0.00,TxWx,2013-06-14 17:21:00,
2013-06-14 12:26:00,33.6,19.0,29.91,NNW,337,0.0,0.0,56,0.00,,,0.00,TxWx,2013-06-14 17:26:00,
2013-06-14 12:32:00,33.4,18.0,29.90,NNW,328,0.0,0.0,56,0.00,,,0.00,TxWx,2013-06-14 17:32:00,
2013-06-14 12:37:00,33.5,18.0,29.90,NNW,336,0.0,0.0,55,0.00,,,0.00,TxWx,2013-06-14 17:37:00,
2013-06-14 12:42:00,33.4,18.0,29.90,North,350,0.0,0.0,57,0.00,,,0.00,TxWx,2013-06-14 17:42:00,
2013-06-14 12:47:00,33.3,19.0,29.90,NNW,328,0.0,0.0,58,0.00,,,0.00,TxWx,2013-06-14 17:47:00,
2013-06-14 12:52:00,33.4,18.0,29.90,NNW,348,0.0,0.0,57,0.00,,,0.00,TxWx,2013-06-14 17:52:00,
2013-06-14 12:57:00,33.5,18.0,29.90,North,356,0.0,0.0,57,0.00,,,0.00,TxWx,2013-06-14 17:57:00,
2013-06-14 13:02:00,33.6,19.0,29.90,NNW,344,0.0,0.0,56,0.00,,,0.00,TxWx,2013-06-14 18:02:00,
2013-06-14 13:08:00,33.8,19.0,29.90,NNW,338,0.0,0.0,57,0.00,,,0.00,TxWx,2013-06-14 18:08:00,
2013-06-14 13:13:00,33.9,19.0,29.90,NNW,329,0.0,0.0,56,0.00,,,0.00,TxWx,2013-06-14 18:13:00,
2013-06-14 13:18:00,34.1,19.0,29.91,North,352,0.0,0.0,56,0.00,,,0.00,TxWx,2013-06-14 18:18:00,
2013-06-14 13:23:00,33.7,19.0,29.91,NNW,333,0.0,0.0,56,0.00,,,0.00,TxWx,2013-06-14 18:23:00,
2013-06-14 13:28:00,33.7,19.0,29.91,North,352,0.0,0.0,57,0.00,,,0.00,TxWx,2013-06-14 18:28:00,
2013-06-14 13:33:00,33.8,19.0,29.91,North,349,0.0,0.0,57,0.00,,,0.00,TxWx,2013-06-14 18:33:00,
2013-06-14 13:38:00,33.8,19.0,29.92,NNW,337,0.0,0.0,56,0.00,,,0.00,TxWx,2013-06-14 18:38:00,
2013-06-14 13:44:00,33.5,19.0,29.92,NNW,341,0.0,0.0,57,0.00,,,0.00,TxWx,2013-06-14 18:44:00,
2013-06-14 13:49:00,33.5,19.0,29.92,North,7,0.0,0.0,58,0.00,,,0.00,TxWx,2013-06-14 18:49:00,
2013-06-14 13:54:00,33.7,19.0,29.92,NNW,343,0.0,0.0,57,0.00,,,0.00,TxWx,2013-06-14 18:54:00,
2013-06-14 13:59:00,33.9,19.0,29.92,NNW,332,0.0,0.0,56,0.00,,,0.00,TxWx,2013-06-14 18:59:00,
2013-06-14 14:05:00,33.7,20.0,29.92,NW,324,0.0,0.0,58,0.00,,,0.00,TxWx,2013-06-14 19:05:00,
2013-06-14 14:09:00,33.6,19.0,29.92,NNW,339,0.0,0.0,57,0.00,,,0.00,TxWx,2013-06-14 19:09:00,
2013-06-14 14:15:00,33.6,20.0,29.92,NNW,344,0.0,0.0,58,0.00,,,0.00,TxWx,2013-06-14 19:15:00,
2013-06-14 14:20:00,33.2,19.0,29.92,North,353,0.0,0.0,59,0.00,,,0.00,TxWx,2013-06-14 19:20:00,
2013-06-14 14:25:00,33.2,19.0,29.92,NNW,342,0.0,0.0,58,0.00,,,0.00,TxWx,2013-06-14 19:25:00,
2013-06-14 14:30:00,33.2,19.0,29.92,NW,325,0.0,0.0,58,0.00,,,0.00,TxWx,2013-06-14 19:30:00,
2013-06-14 14:35:00,33.1,19.0,29.92,NNW,334,0.0,0.0,59,0.00,,,0.00,TxWx,2013-06-14 19:35:00,
2013-06-14 14:40:00,32.9,19.0,29.92,North,351,0.0,0.0,58,0.00,,,0.00,TxWx,2013-06-14 19:40:00,
2013-06-14 14:45:00,33.1,19.0,29.91,NNW,344,0.0,0.0,59,0.00,,,0.00,TxWx,2013-06-14 19:45:00,
2013-06-14 14:50:00,32.7,19.0,29.91,NNW,342,0.0,0.0,59,0.00,,,0.00,TxWx,2013-06-14 19:50:00,
2013-06-14 14:55:00,32.6,20.0,29.91,NNW,344,0.0,0.0,60,0.00,,,0.00,TxWx,2013-06-14 19:55:00,
2013-06-14 15:00:00,32.5,19.0,29.91,NNW,339,0.0,0.0,60,0.00,,,0.00,TxWx,2013-06-14 20:00:00,
2013-06-14 15:07:00,32.8,19.0,29.91,NNW,336,0.0,0.0,60,0.00,,,0.00,TxWx,2013-06-14 20:07:00,
2013-06-14 15:12:00,32.8,19.0,29.91,NNW,345,0.0,0.0,58,0.00,,,0.00,TxWx,2013-06-14 20:12:00,
2013-06-14 15:17:00,33.3,18.0,29.90,NNW,337,0.0,0.0,57,0.00,,,0.00,TxWx,2013-06-14 20:17:00,
2013-06-14 15:23:00,33.1,18.0,29.90,North,351,0.0,0.0,56,0.00,,,0.00,TxWx,2013-06-14 20:23:00,
2013-06-14 15:28:00,32.8,18.0,29.91,NNW,339,0.0,0.0,57,0.00,,,0.00,TxWx,2013-06-14 20:28:00,
2013-06-14 15:33:00,32.6,19.0,29.91,NNW,335,0.0,0.0,58,0.00,,,0.00,TxWx,2013-06-14 20:33:00,
2013-06-14 15:38:00,32.6,19.0,29.91,NNW,328,0.0,0.0,58,0.00,,,0.00,TxWx,2013-06-14 20:38:00,
2013-06-14 15:43:00,32.5,19.0,29.91,North,6,0.0,0.0,58,0.00,,,0.00,TxWx,2013-06-14 20:43:00,
2013-06-14 15:48:00,32.4,18.0,29.91,North,6,0.0,0.0,59,0.00,,,0.00,TxWx,2013-06-14 20:48:00,
2013-06-14 15:53:00,33.0,18.0,29.91,NNW,337,0.0,0.0,57,0.00,,,0.00,TxWx,2013-06-14 20:53:00,
2013-06-14 15:59:00,32.7,18.0,29.91,NNW,342,0.0,0.0,56,0.00,,,0.00,TxWx,2013-06-14 20:59:00,
2013-06-14 16:04:00,32.5,17.0,29.91,North,354,0.0,0.0,56,0.00,,,0.00,TxWx,2013-06-14 21:04:00,
2013-06-14 16:09:00,32.5,18.0,29.91,North,352,0.0,0.0,56,0.00,,,0.00,TxWx,2013-06-14 21:09:00,
2013-06-14 16:14:00,32.9,17.0,29.91,NNW,342,0.0,0.0,54,0.00,,,0.00,TxWx,2013-06-14 21:14:00,
2013-06-14 16:19:00,32.6,18.0,29.91,NNW,329,0.0,0.0,57,0.00,,,0.00,TxWx,2013-06-14 21:19:00,
2013-06-14 16:24:00,32.6,17.0,29.90,NNW,338,0.0,0.0,55,0.00,,,0.00,TxWx,2013-06-14 21:24:00,
2013-06-14 16:29:00,32.8,18.0,29.90,NNW,331,0.0,0.0,57,0.00,,,0.00,TxWx,2013-06-14 21:29:00,
2013-06-14 16:34:00,32.8,17.0,29.90,North,352,0.0,0.0,55,0.00,,,0.00,TxWx,2013-06-14 21:34:00,
2013-06-14 16:40:00,32.8,18.0,29.90,North,349,0.0,0.0,57,0.00,,,0.00,TxWx,2013-06-14 21:40:00,
2013-06-14 16:46:00,32.6,17.0,29.90,North,351,0.0,0.0,54,0.00,,,0.00,TxWx,2013-06-14 21:46:00,
2013-06-14 16:51:00,32.8,18.0,29.90,NNW,346,0.0,0.0,56,0.00,,,0.00,TxWx,2013-06-14 21:51:00,
2013-06-14 16:56:00,32.8,18.0,29.90,NNW,344,0.0,0.0,55,0.00,,,0.00,TxWx,2013-06-14 21:56:00,
2013-06-14 17:01:00,32.8,17.0,29.90,NNW,338,0.0,0.0,54,0.00,,,0.00,TxWx,2013-06-14 22:01:00,
2013-06-14 17:06:00,32.5,17.0,29.90,NW,323,0.0,0.0,55,0.00,,,0.00,TxWx,2013-06-14 22:06:00,
2013-06-14 17:11:00,32.4,17.0,29.90,North,349,0.0,0.0,57,0.00,,,0.00,TxWx,2013-06-14 22:11:00,
2013-06-14 17:16:00,32.4,16.0,29.89,NNW,334,0.0,0.0,55,0.00,,,0.00,TxWx,2013-06-14 22:16:00,
2013-06-14 17:21:00,32.5,17.0,29.90,SSW,192,0.0,0.0,57,0.00,,,0.00,TxWx,2013-06-14 22:21:00,
2013-06-14 17:27:00,32.5,19.0,29.89,NNW,346,0.0,0.0,58,0.00,,,0.00,TxWx,2013-06-14 22:27:00,
2013-06-14 17:32:00,32.6,18.0,29.89,NNW,332,0.0,0.0,57,0.00,,,0.00,TxWx,2013-06-14 22:32:00,
2013-06-14 17:37:00,32.3,18.0,29.89,NNW,334,0.0,0.0,58,0.00,,,0.00,TxWx,2013-06-14 22:37:00,
2013-06-14 17:42:00,32.7,18.0,29.89,North,356,0.0,0.0,57,0.00,,,0.00,TxWx,2013-06-14 22:42:00,
2013-06-14 17:47:00,32.2,16.0,29.89,NNW,347,0.0,0.0,55,0.00,,,0.00,TxWx,2013-06-14 22:47:00,
2013-06-14 17:52:00,32.1,18.0,29.89,North,355,0.0,0.0,58,0.00,,,0.00,TxWx,2013-06-14 22:52:00,
2013-06-14 17:58:00,32.2,17.0,29.89,NNW,341,0.0,0.0,57,0.00,,,0.00,TxWx,2013-06-14 22:58:00,
2013-06-14 18:03:00,32.4,17.0,29.89,NNW,335,0.0,0.0,57,0.00,,,0.00,TxWx,2013-06-14 23:03:00,
2013-06-14 18:08:00,32.2,18.0,29.89,NNW,344,0.0,0.0,58,0.00,,,0.00,TxWx,2013-06-14 23:08:00,
2013-06-14 18:13:00,32.4,17.0,29.88,NNW,346,0.0,0.0,56,0.00,,,0.00,TxWx,2013-06-14 23:13:00,
2013-06-14 18:19:00,32.4,17.0,29.89,NNW,337,0.0,0.0,56,0.00,,,0.00,TxWx,2013-06-14 23:19:00,
2013-06-14 18:24:00,32.2,17.0,29.88,North,352,0.0,0.0,56,0.00,,,0.00,TxWx,2013-06-14 23:24:00,
2013-06-14 18:29:00,32.1,17.0,29.89,NNW,338,0.0,0.0,56,0.00,,,0.00,TxWx,2013-06-14 23:29:00,
2013-06-14 18:34:00,32.0,17.0,29.89,North,9,0.0,0.0,56,0.00,,,0.00,TxWx,2013-06-14 23:34:00,
2013-06-14 18:39:00,32.0,17.0,29.89,North,351,0.0,0.0,55,0.00,,,0.00,TxWx,2013-06-14 23:39:00,
2013-06-14 18:45:00,32.1,17.0,29.88,North,350,0.0,0.0,57,0.00,,,0.00,TxWx,2013-06-14 23:45:00,
2013-06-14 18:50:00,32.0,18.0,29.88,North,356,0.0,0.0,58,0.00,,,0.00,TxWx,2013-06-14 23:50:00,
2013-06-14 18:55:00,31.8,18.0,29.88,North,356,0.0,0.0,58,0.00,,,0.00,TxWx,2013-06-14 23:55:00,
2013-06-14 19:00:00,31.8,18.0,29.88,North,350,0.0,0.0,59,0.00,,,0.00,TxWx,2013-06-15 00:00:00,
2013-06-14 19:06:00,31.8,18.0,29.88,NNW,345,0.0,0.0,59,0.00,,,0.00,TxWx,2013-06-15 00:06:00,
2013-06-14 19:11:00,31.8,17.0,29.88,NNW,347,0.0,0.0,57,0.00,,,0.00,TxWx,2013-06-15 00:11:00,
2013-06-14 19:16:00,31.9,17.0,29.87,North,351,0.0,0.0,57,0.00,,,0.00,TxWx,2013-06-15 00:16:00,
2013-06-14 19:21:00,31.8,17.0,29.87,North,354,0.0,0.0,57,0.00,,,0.00,TxWx,2013-06-15 00:21:00,
2013-06-14 19:27:00,31.7,18.0,29.87,North,4,0.0,0.0,58,0.00,,,0.00,TxWx,2013-06-15 00:27:00,
2013-06-14 19:32:00,31.7,18.0,29.87,North,350,0.0,0.0,59,0.00,,,0.00,TxWx,2013-06-15 00:32:00,
2013-06-14 19:37:00,31.6,18.0,29.87,North,5,0.0,0.0,59,0.00,,,0.00,TxWx,2013-06-15 00:37:00,
2013-06-14 19:42:00,31.5,18.0,29.87,North,353,0.0,0.0,60,0.00,,,0.00,TxWx,2013-06-15 00:42:00,
2013-06-14 19:47:00,31.3,18.0,29.87,North,357,0.0,0.0,60,0.00,,,0.00,TxWx,2013-06-15 00:47:00,
2013-06-14 19:52:00,31.3,18.0,29.87,North,352,0.0,0.0,61,0.00,,,0.00,TxWx,2013-06-15 00:52:00,
2013-06-14 19:57:00,31.4,18.0,29.87,North,359,0.0,0.0,61,0.00,,,0.00,TxWx,2013-06-15 00:57:00,
2013-06-14 20:03:00,31.2,18.0,29.86,North,357,0.0,0.0,62,0.00,,,0.00,TxWx,2013-06-15 01:03:00,
2013-06-14 20:08:00,31.0,19.0,29.86,North,358,0.0,0.0,62,0.00,,,0.00,TxWx,2013-06-15 01:08:00,
2013-06-14 20:13:00,30.9,19.0,29.86,North,0,0.0,0.0,63,0.00,,,0.00,TxWx,2013-06-15 01:13:00,
2013-06-14 20:18:00,30.8,19.0,29.86,North,358,0.0,0.0,63,0.00,,,0.00,TxWx,2013-06-15 01:18:00,
2013-06-14 20:24:00,31.0,19.0,29.87,North,358,0.0,0.0,64,0.00,,,0.00,TxWx,2013-06-15 01:24:00,
2013-06-14 20:29:00,30.7,19.0,29.86,North,358,0.0,0.0,65,0.00,,,0.00,TxWx,2013-06-15 01:29:00,
2013-06-14 20:34:00,30.7,20.0,29.87,North,359,0.0,0.0,65,0.00,,,0.00,TxWx,2013-06-15 01:34:00,
2013-06-14 20:39:00,30.5,19.0,29.87,North,349,0.0,0.0,66,0.00,,,0.00,TxWx,2013-06-15 01:39:00,
2013-06-14 20:45:00,30.4,19.0,29.86,North,356,0.0,0.0,66,0.00,,,0.00,TxWx,2013-06-15 01:45:00,
2013-06-14 20:50:00,30.3,19.0,29.86,North,356,0.0,0.0,67,0.00,,,0.00,TxWx,2013-06-15 01:50:00,
2013-06-14 20:55:00,30.3,20.0,29.87,North,360,0.0,0.0,68,0.00,,,0.00,TxWx,2013-06-15 01:55:00,
2013-06-14 21:00:00,30.2,20.0,29.87,North,356,0.0,0.0,68,0.00,,,0.00,TxWx,2013-06-15 02:00:00,
2013-06-14 21:05:00,30.2,20.0,29.87,North,355,0.0,0.0,69,0.00,,,0.00,TxWx,2013-06-15 02:05:00,
2013-06-14 21:10:00,30.0,20.0,29.87,North,354,0.0,0.0,69,0.00,,,0.00,TxWx,2013-06-15 02:10:00,
2013-06-14 21:16:00,30.2,20.0,29.87,North,350,0.0,0.0,70,0.00,,,0.00,TxWx,2013-06-15 02:16:00,
2013-06-14 21:20:00,30.2,20.0,29.88,North,350,0.0,0.0,70,0.00,,,0.00,TxWx,2013-06-15 02:20:00,
2013-06-14 21:26:00,30.1,20.0,29.88,North,350,0.0,0.0,70,0.00,,,0.00,TxWx,2013-06-15 02:26:00,
2013-06-14 21:31:00,30.2,21.0,29.88,North,350,0.0,0.0,71,0.00,,,0.00,TxWx,2013-06-15 02:31:00,
2013-06-14 21:36:00,30.4,21.0,29.88,North,354,0.0,0.0,71,0.00,,,0.00,TxWx,2013-06-15 02:36:00,
2013-06-14 21:41:00,30.3,21.0,29.88,North,354,0.0,0.0,71,0.00,,,0.00,TxWx,2013-06-15 02:41:00,
2013-06-14 21:46:00,30.3,21.0,29.88,North,354,0.0,0.0,71,0.00,,,0.00,TxWx,2013-06-15 02:46:00,
2013-06-14 21:51:00,30.3,21.0,29.88,North,354,0.0,0.0,71,0.00,,,0.00,TxWx,2013-06-15 02:51:00,
2013-06-14 21:56:00,30.4,21.0,29.88,North,354,0.0,0.0,71,0.00,,,0.00,TxWx,2013-06-15 02:56:00,
2013-06-14 22:01:00,30.3,21.0,29.88,North,1,0.0,0.0,72,0.00,,,0.00,TxWx,2013-06-15 03:01:00,
2013-06-14 22:06:00,30.2,21.0,29.88,North,5,0.0,0.0,72,0.00,,,0.00,TxWx,2013-06-15 03:06:00,
2013-06-14 22:11:00,30.1,21.0,29.88,North,1,0.0,0.0,72,0.00,,,0.00,TxWx,2013-06-15 03:11:00,
2013-06-14 22:16:00,30.2,21.0,29.88,North,1,0.0,0.0,72,0.00,,,0.00,TxWx,2013-06-15 03:16:00,
2013-06-14 22:22:00,29.9,21.0,29.88,North,360,0.0,0.0,73,0.00,,,0.00,TxWx,2013-06-15 03:22:00,
2013-06-14 22:27:00,29.9,21.0,29.88,North,360,0.0,0.0,73,0.00,,,0.00,TxWx,2013-06-15 03:27:00,
2013-06-14 22:32:00,29.8,22.0,29.88,North,360,0.0,0.0,74,0.00,,,0.00,TxWx,2013-06-15 03:32:00,
2013-06-14 22:37:00,29.7,22.0,29.89,North,358,0.0,0.0,74,0.00,,,0.00,TxWx,2013-06-15 03:37:00,
2013-06-14 22:42:00,29.6,22.0,29.89,North,354,0.0,0.0,75,0.00,,,0.00,TxWx,2013-06-15 03:42:00,
2013-06-14 22:47:00,29.6,22.0,29.88,North,354,0.0,0.0,75,0.00,,,0.00,TxWx,2013-06-15 03:47:00,
2013-06-14 22:52:00,29.7,22.0,29.88,North,354,0.0,0.0,75,0.00,,,0.00,TxWx,2013-06-15 03:52:00,
2013-06-14 22:57:00,29.8,22.0,29.88,North,354,0.0,0.0,75,0.00,,,0.00,TxWx,2013-06-15 03:57:00,
2013-06-14 23:01:00,29.5,22.0,29.88,North,354,0.0,0.0,75,0.00,,,0.00,TxWx,2013-06-15 04:01:00,
2013-06-14 23:02:00,29.6,22.0,29.88,North,354,0.0,0.0,76,0.00,,,0.00,TxWx,2013-06-15 04:02:00,
2013-06-14 23:07:00,29.5,22.0,29.88,North,354,0.0,0.0,76,0.00,,,0.00,TxWx,2013-06-15 04:07:00,
2013-06-14 23:12:00,29.5,21.0,29.88,North,355,0.0,0.0,76,0.00,,,0.00,TxWx,2013-06-15 04:12:00,
2013-06-14 23:17:00,29.5,22.0,29.88,NNW,339,0.0,0.0,77,0.00,,,0.00,TxWx,2013-06-15 04:17:00,
2013-06-14 23:22:00,29.4,22.0,29.88,NNW,341,0.0,0.0,77,0.00,,,0.00,TxWx,2013-06-15 04:22:00,
2013-06-14 23:28:00,29.1,22.0,29.88,NNW,341,0.0,0.0,77,0.00,,,0.00,TxWx,2013-06-15 04:28:00,
2013-06-14 23:33:00,28.8,22.0,29.87,NNW,341,0.0,0.0,77,0.00,,,0.00,TxWx,2013-06-15 04:33:00,
2013-06-14 23:38:00,28.9,22.0,29.87,North,5,0.0,0.0,77,0.00,,,0.00,TxWx,2013-06-15 04:38:00,
2013-06-14 23:43:00,28.8,22.0,29.87,North,5,0.0,0.0,77,0.00,,,0.00,TxWx,2013-06-15 04:43:00,
2013-06-14 23:48:00,28.8,22.0,29.87,North,5,0.0,0.0,77,0.00,,,0.00,TxWx,2013-06-15 04:48:00,
2013-06-14 23:54:00,28.7,22.0,29.86,North,6,0.0,0.0,77,0.00,,,0.00,TxWx,2013-06-15 04:54:00,
2013-06-14 23:59:00,28.4,21.0,29.87,North,5,0.0,0.0,77,0.00,,,0.00,TxWx,2013-06-15 04:59:00,